This is the latest recevied weather packets stored in our database for station/object K9NZF-1. If no packets are shown the sender has not sent any weather packets the latest 1 day(s).
| Time | Temp. | Humidity | Pressure | Rain* | Wind** | Luminosity | Snow |
|---|---|---|---|---|---|---|---|
| 1778084709 | 12.78° C | 61% | 1013 hPa | 0 mm | - | 578 W/m² | - |
| 1778084460 | 12.78° C | 65% | 1013.2 hPa | 0 mm | - | 550 W/m² | - |
| 1778084271 | 12.22° C | 67% | 1013.1 hPa | 0 mm | - | 533 W/m² | - |
| 1778084147 | 12.22° C | 69% | 1013.1 hPa | 0 mm | - | 501 W/m² | - |
| 1778084087 | 12.22° C | 67% | 1013.1 hPa | 0 mm | - | 561 W/m² | - |
| 1778083966 | 12.22° C | 68% | 1013.1 hPa | 0 mm | - | 538 W/m² | - |
| 1778083785 | 12.22° C | 65% | 1013 hPa | 0 mm | - | 573 W/m² | - |
| 1778083725 | 12.22° C | 64% | 1013 hPa | 0 mm | - | 596 W/m² | - |
| 1778083604 | 12.22° C | 66% | 1013.1 hPa | 0 mm | - | 543 W/m² | - |
| 1778083359 | 12.22° C | 69% | 1013 hPa | 0 mm | - | 512 W/m² | - |
| 1778082989 | 11.67° C | 70% | 1013.1 hPa | 0 mm | - | 510 W/m² | - |
| 1778082866 | 11.67° C | 67% | 1013 hPa | 0 mm | - | 480 W/m² | - |
| 1778082742 | 11.67° C | 68% | 1013.1 hPa | 0 mm | - | 480 W/m² | - |
| 1778082563 | 11.67° C | 67% | 1012.9 hPa | 0 mm | - | 561 W/m² | - |
| 1778082314 | 11.67° C | 69% | 1012.7 hPa | 0 mm | - | 338 W/m² | - |
| 1778082251 | 11.67° C | 69% | 1012.7 hPa | 0 mm | - | 306 W/m² | - |
| 1778082133 | 11.67° C | 70% | 1012.7 hPa | 0 mm | - | 346 W/m² | - |
| 1778081829 | 11.67° C | 70% | 1012.9 hPa | 0 mm | - | 408 W/m² | - |
| 1778081771 | 11.67° C | 70% | 1012.9 hPa | 0 mm | - | 436 W/m² | - |
| 1778081710 | 11.67° C | 71% | 1012.9 hPa | 0 mm | - | 420 W/m² | - |
| 1778081586 | 11.67° C | 71% | 1012.9 hPa | 0 mm | - | 446 W/m² | - |
| 1778081407 | 11.67° C | 71% | 1012.8 hPa | 0 mm | - | 765 W/m² | - |
| 1778081278 | 11.67° C | 70% | 1012.7 hPa | 0 mm | - | 765 W/m² | - |
| 1778081219 | 11.67° C | 71% | 1012.7 hPa | 0 mm | - | 765 W/m² | - |
| 1778081159 | 11.67° C | 70% | 1012.8 hPa | 0 mm | - | 538 W/m² | - |
* Rain latest hour (hover to see other rain measurements)
** Current wind speed in m/s (hover to see current wind gust speed)